Regional Weather Roundup
Issued by NWS

Home | Current Version | Previous Version | Text Only | Print | Product List | Glossary Off
Versions: 1 2 3 4 5 6 7 8 9 10 11 12 13 14 15 16 17 18 19 20 21 22 23 24 25 26 27 28 29 30 31 32 33 34 35 36 37 38 39 40 41 42 43 44 45 46 47 48 49 50

000
ASUS43 KLOT 011106
RWRIL

ILLINOIS REGIONAL WEATHER ROUNDUP
NATIONAL WEATHER SERVICE CHICAGO/ROMEOVILLE IL
600 AM CDT FRI AUG 01 2014

NOTE: "FAIR" INDICATES FEW OR NO CLOUDS BELOW 12,000 FEET WITH NO
SIGNIFICANT WEATHER AND/OR OBSTRUCTIONS TO VISIBILITY.

* THESE STATIONS ARE NOT UNDER NWS QUALITY CONTROL. THEY ALSO MAY NOT
  REPORT WEATHER SUCH AS PRECIPITATION OR FOG.

ILZ001-002-007-009-015-016-024-011200-
NORTHWEST ILLINOIS

CITY           SKY/WX    TMP DP  RH WIND       PRES   REMARKS
MOLINE         LGT RAIN  64  57  78 S15       30.07R
STERLING*      PTCLDY    57  54  88 CALM      30.08R
SAVANNA*       MOCLDY    60  58  92 MISG      30.07R
$$

ILZ003-004-008-010-011-017-018-011200-
NORTH CENTRAL ILLINOIS

CITY           SKY/WX    TMP DP  RH WIND       PRES   REMARKS
ROCKFORD       MOCLDY    59  56  89 S5        30.09R
FREEPORT*      CLEAR     57  55  93 SW3       30.09R
ROCHELLE*      PTCLDY    55  54  94 S9        30.09R FOG
DE KALB*       PTCLDY    58  55  91 CALM      30.09R
PERU*          MOCLDY    64  62  93 CALM      30.08R
$$

ILZ005-006-012>014-019>023-011200-
NORTHEAST ILLINOIS

CITY           SKY/WX    TMP DP  RH WIND       PRES   REMARKS
CHICAGO-OHARE  PTCLDY    63  57  81 W6        30.06S
CHICAGO-MIDWAY PTCLDY    68  63  84 SW8       30.07R
AURORA         PTCLDY    58  55  90 CALM      30.08S FOG
LANSING*       CLEAR     60  59  97 CALM      30.08S FOG
JOLIET*        PTCLDY    61  59  92 CALM      30.09R FOG
WAUKEGAN       CLEAR     62  57  83 CALM      30.05S
DUPAGE AIRPORT PTCLDY    62  60  93 CALM      30.07R FOG
KANKAKEE*      PTCLDY    59  57  96 CALM      30.09S
WHEELING       CLEAR     63  58  83 CALM      30.08R
MORRIS*        PTCLDY    62  62 100 CALM      30.08R FOG
ROMEOVILLE*    HVY RAIN  67  53  60 NE5G33    30.10R VSB 1/4
NORTHERLY ISL    N/A     69  60  73 W5          N/A
$$

LMZ740>746-011200-
SOUTHERN LAKE MICHIGAN

STATION/POSITION SKY/WX   TEMP    WIND        PRES    VSBY  WAVE
                          AIR SEA DIR/SP/G                  HT/PER
                          (F)     (DEG/KT/KT) (MB)    (MI)  (FT/S)
SOUTHERN BUOY              64 62  240/  6/  6 1017.6R         0
WAUKEGAN HARBOR            67     260/  9/ 10   N/A
HARRISON CRIB              71     260/ 10/ 10   N/A
BURNHAM HARBOR             69     250/  5/  7   N/A
CALUMET HARBOR             67     220/  3/  4 1017.0R
MICHIGAN CITY              66     170/  6/  8   N/A
MICHIGAN CITY 6N           67 69  200/  8/  8   N/A           1
ST. JOSEPH                 68 69  180/  8/ 10   N/A           1/ 2
$$

ILZ025>027-034>036-040-047-049-050-058-095>099-011200-
WEST-CENTRAL ILLINOIS

CITY           SKY/WX    TMP DP  RH WIND       PRES   REMARKS
QUINCY         MOCLDY    66  58  75 SE3       30.07R
GALESBURG*     MOCLDY    64  61  91 CALM      30.08R
MACOMB*        CLEAR     59  59 100 CALM      30.10R
JACKSONVILLE*  PTCLDY    62  61  94 CALM      30.08S
PITTSFIELD*    PTCLDY    60  57  91 CALM      30.08S
$$

ILZ028>032-037-038-041>044-048-051>054-059>061-011200-
CENTRAL ILLINOIS

CITY           SKY/WX    TMP DP  RH WIND       PRES   REMARKS
PONTIAC        MOCLDY    61  61 100 CALM      30.08S FOG
DECATUR        PTCLDY    59  56  89 CALM      30.09R
PEORIA         CLOUDY    67  62  84 CALM      30.08S
LACON*         CLOUDY    63  61  92 CALM      30.07R
LINCOLN*       PTCLDY    62  59  91 CALM      30.06S
SPRINGFIELD    PTCLDY    60  58  92 CALM      30.09S
TAYLORVILLE    PTCLDY    59  57  94 CALM      30.08S
$$

ILZ033-039-045-046-055>057-062-063-011200-
EAST-CENTRAL ILLINOIS

CITY           SKY/WX    TMP DP  RH WIND       PRES   REMARKS
CHAMPAIGN      MOCLDY    61  60  97 E3        30.10R
DANVILLE*      PTCLDY    57  56  99 CALM      30.08R FOG
MATTOON          N/A     66  62  87 SW6       30.08S
PARIS*           N/A     56  56  97 CALM      30.11R FOG
$$

ILZ079-100>102-011200-
SOUTHWEST ILLINOIS

CITY           SKY/WX    TMP DP  RH WIND       PRES   REMARKS
ALTON            N/A     59  59 100 CALM      30.09R FOG
BELLEVILLE     FOG       62  62 100 CALM      30.08R VSB 1/4
CAHOKIA*       PTCLDY    60  59  96 CALM      30.08R FOG
SPARTA*        CLEAR     63  61  94 CALM      30.09S
$$

ILZ064>066-069>071-074>076-080>082-084>086-088>090-092>094-011200-
SOUTH-CENTRAL ILLINOIS

CITY           SKY/WX    TMP DP  RH WIND       PRES   REMARKS
CARBONDALE     FOG       59  57  93 CALM      30.09R VSB 1/4
CAIRO*         MOCLDY    65  63  93 CALM      30.08S FOG
MARION         FOG       59  59 100 CALM      30.10R VSB<1/4
MT. VERNON     CLOUDY    57  54  88 CALM      30.10S VSB 1/4
CENTRALIA*     FOG       56  55  94 CALM      30.09R VSB 1/4
SALEM*         FOG       60  60  98 CALM      30.10R VSB 1/4
METROPOLIS*    CLOUDY    61  60  97 CALM      30.08R FOG
$$

ILZ067-068-072-073-078-083-087-091-011200-
SOUTHEAST ILLINOIS

CITY           SKY/WX    TMP DP  RH WIND       PRES   REMARKS
LAWRENCEVILLE  CLOUDY    60  59  96 CALM      30.10R FOG
FLORA*         PTCLDY    57  56  97 CALM      30.10S FOG
FAIRFIELD*     MOCLDY    59  57  94 CALM      30.09S FOG
HARRISBURG*    FOG       60  60 100 CALM      30.10R VSB<1/4
ROBINSON*      FOG       58  58  99 CALM      30.11R VSB<1/4
CARMI*         FOG       61  61 100 CALM      30.09R VSB 1/2
$$

ABBREVIATIONS USED IN REMARKS
   TC - TEMPERATURE IN CELSIUS
  WCI - WIND CHILL INDEX
   HX - HEAT INDEX
  VSB - VISIBILITY
$$



USA.gov is the U.S. government's official web portal to all federal, state and local government web resources and services.